Sant Julià de Vilatorta





Hora UTC 17:55
Temperatura 22.0 ºC
Humitat 64.0 %
Pressió 1017.1 hPa
Pluja 0.0 mm
Velocitat vent 0.0 km/h
Direcció vent WSW
Radiació solar 18.0 W/m²

Dades diàries 2020-05-25



Hora UTC (hivern +1h; estiu +2h)
Temperatura (ºC) Humitat (%) Pressió (hPa) Velocitat vent (km/h) Precipitació (mm) Radiació solar (W/m²)
Hora UTC Aire Humitat Pressió Vel. Dir. Vel. Max Dir. Intent. màx 5 min. Rad. Sol.
00:05 18.3 85.0 1019.1 0.0 SE 0.0 0.0 0.0
00:10 18.3 85.0 1019.1 0.0 SE 0.0 0.0 0.0
00:15 18.3 85.0 1018.9 0.0 SE 0.0 0.0 0.0
00:20 18.3 85.0 1018.8 0.0 SE 0.0 0.0 0.0
00:25 18.3 84.0 1018.8 0.0 SE 0.0 0.0 0.0
00:30 18.3 84.0 1018.7 0.0 SE 0.0 0.0 0.0
00:35 18.3 85.0 1018.7 0.0 SE 0.0 0.0 0.0
00:40 18.3 85.0 1018.7 0.0 SE 0.0 0.0 0.0
00:45 18.2 85.0 1018.7 0.0 SE 0.0 0.0 0.0
00:50 18.2 85.0 1018.7 0.0 SE 0.0 0.0 0.0
00:55 18.2 85.0 1018.7 0.0 SE 0.0 0.0 0.0
01:00 18.2 86.0 1018.7 0.0 SE 0.0 0.0 0.0
01:05 18.2 86.0 1018.7 0.0 SE 0.0 0.0 0.0
01:10 18.1 84.0 1018.6 0.0 SE 0.0 0.0 0.0
01:15 18.2 84.0 1018.6 0.0 SE 0.0 0.0 0.0
01:20 18.2 85.0 1018.6 0.0 SE 0.0 0.0 0.0
01:25 18.1 85.0 1018.6 0.0 SE 0.0 0.0 0.0
01:30 18.1 85.0 1018.5 0.0 SE 0.0 0.0 0.0
01:35 18.0 85.0 1018.5 0.0 SE 0.0 0.0 0.0
01:40 18.0 85.0 1018.4 0.0 SE 0.0 0.0 0.0
01:45 17.9 85.0 1018.4 0.0 SE 0.0 0.0 0.0
01:50 17.9 85.0 1018.3 0.0 SE 0.0 0.0 0.0
01:55 17.8 85.0 1018.2 0.0 SE 0.0 0.0 0.0
02:00 17.8 85.0 1018.1 0.0 SE 0.0 0.0 0.0
02:05 17.8 85.0 1018.1 0.0 SE 0.0 0.0 0.0
02:10 17.7 86.0 1018.1 0.0 SE 0.0 0.0 0.0
02:15 17.7 85.0 1018.1 0.0 SE 0.0 0.0 0.0
02:20 17.6 85.0 1018.1 0.0 SE 0.0 0.0 0.0
02:25 17.6 86.0 1018.1 0.0 SE 0.0 0.0 0.0
02:30 17.6 86.0 1018.0 0.0 SE 0.0 0.0 0.0
02:35 17.6 85.0 1018.0 0.0 SE 0.0 0.0 0.0
02:40 17.5 85.0 1018.0 0.0 SE 0.0 0.0 0.0
02:45 17.5 85.0 1018.0 0.0 SE 0.0 0.0 0.0
02:50 17.4 85.0 1018.0 0.0 SE 0.0 0.0 0.0
02:55 17.4 84.0 1017.9 0.0 SE 0.0 0.0 0.0
03:00 17.5 84.0 1018.0 0.0 SE 0.0 0.0 0.0
03:05 17.6 84.0 1018.1 0.0 SE 0.0 0.0 0.0
03:10 17.6 84.0 1018.0 0.0 SE 0.0 0.0 0.0
03:15 17.6 84.0 1017.9 0.0 SE 0.0 0.0 0.0
03:20 17.6 84.0 1018.0 0.0 SE 0.0 0.0 0.0
03:25 17.5 85.0 1018.0 0.0 SE 0.0 0.0 0.0
03:30 17.4 85.0 1017.9 0.0 SE 0.0 0.0 0.0
03:35 17.4 85.0 1017.9 0.0 SE 0.0 0.0 0.0
03:40 17.3 85.0 1017.9 0.0 SE 0.0 0.0 0.0
03:45 17.3 85.0 1017.9 0.0 SE 0.0 0.0 0.0
03:50 17.3 85.0 1017.9 0.0 SE 0.0 0.0 0.0
03:55 17.3 85.0 1017.9 0.0 SE 0.0 0.0 0.0
04:00 17.3 85.0 1017.9 0.0 SE 0.0 0.0 0.0
04:05 17.3 85.0 1017.9 0.0 SE 0.0 0.0 0.0
04:10 17.3 85.0 1018.0 0.0 ENE 0.0 0.0 0.0
04:15 17.2 85.0 1017.9 0.0 ENE 0.0 0.0 0.0
04:20 17.2 86.0 1017.9 0.0 ENE 0.0 0.0 0.0
04:25 17.2 86.0 1017.9 0.0 ENE 0.0 0.0 0.0
04:30 17.2 86.0 1018.0 0.0 ENE 0.0 0.0 0.0
04:35 17.2 86.0 1018.0 0.0 ENE 0.0 0.0 5.0
04:40 17.2 86.0 1018.0 0.0 ENE 0.0 0.0 9.0
04:45 17.2 86.0 1018.1 0.0 ENE 0.0 0.0 11.0
04:50 17.3 86.0 1018.1 0.0 ENE 0.0 0.0 11.0
04:55 17.3 86.0 1018.1 0.0 ENE 0.0 0.0 7.0
05:00 17.3 86.0 1018.2 0.0 ENE 0.0 0.0 9.0
05:05 17.3 86.0 1018.3 0.0 ENE 0.0 0.0 12.0
05:10 17.4 86.0 1018.3 0.0 ENE 0.0 0.0 14.0
05:15 17.4 84.0 1018.4 0.0 ENE 0.0 0.0 11.0
05:20 17.5 83.0 1018.3 0.0 ENE 0.0 0.0 14.0
05:25 17.6 82.0 1018.4 0.0 ENE 0.0 0.0 11.0
05:30 17.6 80.0 1018.5 0.0 ENE 0.0 0.0 12.0
05:35 17.6 78.0 1018.5 0.0 ENE 0.0 0.0 12.0
05:40 17.7 78.0 1018.6 0.0 ENE 0.0 0.0 12.0
05:45 17.7 79.0 1018.5 0.0 ENE 0.0 0.0 19.0
05:50 17.8 79.0 1018.6 0.0 ENE 0.0 0.0 28.0
05:55 17.8 79.0 1018.6 0.0 ENE 0.0 0.0 39.0
06:00 17.8 79.0 1018.6 0.0 ENE 0.0 0.0 56.0
06:05 17.9 79.0 1018.6 0.0 ENE 0.0 0.0 62.0
06:10 17.9 78.0 1018.7 0.0 ENE 0.0 0.0 65.0
06:15 18.1 78.0 1018.8 0.0 ENE 0.0 0.0 72.0
06:20 18.1 77.0 1018.9 0.0 ENE 0.0 0.0 60.0
06:25 18.2 76.0 1018.8 0.0 NE 0.0 0.0 67.0
06:30 18.3 76.0 1018.7 0.0 NE 0.0 0.0 69.0
06:35 18.3 76.0 1018.8 0.0 NNW 0.0 0.0 70.0
06:40 18.3 75.0 1018.8 0.0 N 0.0 0.0 65.0
06:45 18.4 75.0 1018.8 0.0 NE 0.0 0.0 65.0
06:50 18.4 75.0 1018.8 0.0 NNE 0.0 0.0 63.0
06:55 18.4 76.0 1018.9 0.0 NNE 0.0 0.0 67.0
07:00 18.4 76.0 1018.9 0.0 NNE 0.0 0.0 70.0
07:05 18.5 75.0 1019.0 0.0 N 0.0 0.0 60.0
07:10 18.6 75.0 1019.0 0.0 N 0.0 0.0 62.0
07:15 18.6 75.0 1018.9 0.0 N 0.0 0.0 88.0
07:20 18.6 75.0 1019.0 0.0 N 0.0 0.0 81.0
07:25 18.7 75.0 1018.9 0.0 E 0.0 0.0 102.0
07:30 18.8 74.0 1018.9 0.0 NE 0.0 0.0 104.0
07:35 18.8 74.0 1018.8 0.0 NE 0.0 0.0 104.0
07:40 18.8 73.0 1018.7 0.0 NNW 0.0 0.0 70.0
07:45 18.8 73.0 1018.7 0.0 NE 1.6 0.0 84.0
07:50 18.8 73.0 1018.6 0.0 NE 1.6 0.0 102.0
07:55 18.9 73.0 1018.6 0.0 NE 0.0 0.0 163.0
08:00 19.1 72.0 1018.6 0.0 NE 0.0 0.0 160.0
08:05 19.2 71.0 1018.7 0.0 NE 0.0 0.0 163.0
08:10 19.3 72.0 1018.7 0.0 NE 0.0 0.0 193.0
08:15 19.5 69.0 1018.5 0.0 NE 0.0 0.0 218.0
08:20 19.6 69.0 1018.6 0.0 NNW 0.0 0.0 288.0
08:25 19.8 68.0 1018.6 0.0 NE 0.0 0.0 274.0
08:30 20.1 67.0 1018.5 0.0 NE 0.0 0.0 283.0
08:35 20.3 67.0 1018.5 0.0 NE 0.0 0.0 269.0
08:40 20.4 64.0 1018.5 0.0 NE 0.0 0.0 214.0
08:45 20.4 65.0 1018.6 0.0 ENE 0.0 0.0 200.0
08:50 20.4 65.0 1018.6 0.0 ENE 0.0 0.0 267.0
08:55 20.5 64.0 1018.6 0.0 ESE 0.0 0.0 281.0
09:00 20.7 65.0 1018.7 0.0 ESE 0.0 0.0 306.0
09:05 20.9 64.0 1018.6 0.0 ESE 0.0 0.0 640.0
09:10 21.4 64.0 1018.6 0.0 ESE 0.0 0.0 497.0
09:15 21.7 62.0 1018.6 0.0 ESE 0.0 0.0 313.0
09:20 21.9 62.0 1018.7 0.0 ESE 0.0 0.0 343.0
09:25 22.1 62.0 1018.7 0.0 ESE 0.0 0.0 285.0
09:30 22.1 62.0 1018.9 0.0 SE 1.6 0.0 288.0
09:35 22.0 62.0 1018.9 0.0 SE 1.6 0.0 455.0
09:40 21.9 64.0 1018.9 0.0 SE 0.0 0.0 353.0
09:45 21.9 64.0 1018.9 0.0 SE 0.0 0.0 410.0
09:50 22.0 63.0 1018.9 0.0 SE 0.0 0.0 510.0
09:55 22.2 64.0 1018.9 0.0 SE 0.0 0.0 339.0
10:00 22.3 63.0 1018.7 0.0 SE 0.0 0.0 246.0
10:05 22.3 63.0 1018.8 0.0 SE 0.0 0.0 281.0
10:10 22.3 64.0 1018.7 0.0 SE 0.0 0.0 279.0
10:15 22.3 64.0 1018.7 0.0 SE 0.0 0.0 251.0
10:20 22.3 64.0 1018.6 0.0 SE 0.0 0.0 283.0
10:25 22.3 63.0 1018.7 0.0 SE 0.0 0.0 220.0
10:30 22.2 65.0 1018.7 0.0 SE 0.0 0.0 188.0
10:35 22.2 65.0 1018.7 0.0 SE 0.0 0.0 169.0
10:40 22.1 65.0 1018.7 0.0 SE 0.0 0.0 188.0
10:45 22.0 65.0 1018.6 0.0 SE 0.0 0.0 207.0
10:50 21.9 65.0 1018.6 0.0 SE 0.0 0.0 190.0
10:55 21.9 65.0 1018.6 0.0 SE 0.0 0.0 181.0
11:00 21.8 66.0 1018.6 0.0 SE 0.0 0.0 162.0
11:05 21.8 67.0 1018.6 0.0 SE 0.0 0.0 141.0
11:10 21.7 67.0 1018.6 0.0 SE 0.0 0.0 135.0
11:15 21.7 66.0 1018.6 0.0 SE 0.0 0.0 130.0
11:20 21.7 68.0 1018.6 0.0 SE 0.0 0.0 120.0
11:25 21.7 67.0 1018.7 0.0 SE 0.0 0.0 107.0
11:30 21.7 67.0 1018.6 0.0 SE 0.0 0.0 111.0
11:35 21.6 68.0 1018.6 0.0 SE 0.0 0.0 148.0
11:40 21.6 68.0 1018.6 0.0 SE 0.0 0.0 218.0
11:45 21.6 66.0 1018.6 0.0 NE 0.0 0.0 223.0
11:50 21.7 67.0 1018.6 0.0 NE 0.0 0.0 216.0
11:55 21.7 67.0 1018.6 0.0 NE 0.0 0.0 218.0
12:00 21.8 65.0 1018.6 0.0 NE 0.0 0.0 250.0
12:05 21.9 66.0 1018.5 0.0 NE 0.0 0.0 267.0
12:10 22.2 65.0 1018.6 0.0 SW 0.0 0.0 176.0
12:15 22.3 64.0 1018.6 0.0 SW 0.0 0.0 134.0
12:20 22.2 65.0 1018.6 0.0 SW 0.0 0.0 123.0
12:25 22.2 65.0 1018.5 0.0 SW 0.0 0.0 123.0
12:30 22.1 65.0 1018.5 0.0 SW 0.0 0.0 135.0
12:35 22.1 66.0 1018.4 0.0 SW 0.0 0.0 181.0
12:40 22.2 65.0 1018.4 0.0 SW 0.0 0.0 246.0
12:45 22.3 65.0 1018.4 0.0 SW 0.0 0.0 216.0
12:50 22.5 64.0 1018.3 0.0 SW 0.0 0.0 202.0
12:55 22.6 64.0 1018.3 0.0 SW 0.0 0.0 216.0
13:00 22.7 63.0 1018.2 0.0 SW 0.0 0.0 251.0
13:05 22.8 63.0 1018.1 0.0 SW 0.0 0.0 239.0
13:10 22.8 63.0 1018.1 0.0 SW 0.0 0.0 265.0
13:15 22.9 63.0 1018.1 0.0 SW 0.0 0.0 276.0
13:20 22.9 63.0 1017.9 0.0 SW 0.0 0.0 306.0
13:25 23.0 63.0 1017.9 0.0 SW 0.0 0.0 336.0
13:30 23.1 63.0 1018.1 0.0 SW 0.0 0.0 276.0
13:35 23.1 62.0 1017.9 0.0 SW 0.0 0.0 199.0
13:40 23.1 62.0 1018.0 0.0 SW 0.0 0.0 160.0
13:45 23.1 63.0 1017.9 0.0 SW 0.0 0.0 144.0
13:50 22.9 64.0 1017.9 0.0 SW 0.0 0.0 148.0
13:55 22.9 63.0 1017.9 0.0 SW 0.0 0.0 162.0
14:00 22.9 63.0 1017.9 0.0 SW 0.0 0.0 183.0
14:05 23.0 64.0 1017.8 0.0 E 0.0 0.0 216.0
14:10 23.0 63.0 1017.8 0.0 E 0.0 0.0 248.0
14:15 23.1 63.0 1017.7 0.0 E 0.0 0.0 338.0
14:20 23.2 62.0 1017.7 0.0 E 0.0 0.0 192.0
14:25 23.2 65.0 1017.6 0.0 E 0.0 0.0 202.0
14:30 23.2 64.0 1017.5 0.0 E 0.0 0.0 204.0
14:35 23.2 63.0 1017.5 0.0 ENE 0.0 0.0 132.0
14:40 23.1 64.0 1017.5 0.0 ENE 0.0 0.0 116.0
14:45 22.9 63.0 1017.4 0.0 E 0.0 0.0 114.0
14:50 22.8 65.0 1017.5 0.0 E 0.0 0.0 130.0
14:55 22.7 65.0 1017.4 0.0 E 0.0 0.0 176.0
15:00 22.8 65.0 1017.5 0.0 SSE 0.0 0.0 274.0
15:05 22.8 64.0 1017.4 0.0 SSE 0.0 0.0 257.0
15:10 22.9 64.0 1017.4 0.0 SSE 0.0 0.0 237.0
15:15 23.1 64.0 1017.4 0.0 SSE 0.0 0.0 220.0
15:20 23.2 63.0 1017.4 0.0 NE 0.0 0.0 207.0
15:25 23.3 62.0 1017.4 0.0 SW 0.0 0.0 165.0
15:30 23.3 62.0 1017.3 0.0 SW 0.0 0.0 116.0
15:35 23.3 63.0 1017.4 0.0 SW 0.0 0.0 160.0
15:40 23.3 63.0 1017.3 0.0 WSW 0.0 0.0 243.0
15:45 23.4 63.0 1017.3 0.0 WSW 1.6 0.0 204.0
15:50 23.4 62.0 1017.3 0.0 WSW 1.6 0.0 165.0
15:55 23.4 62.0 1017.2 0.0 WSW 0.0 0.0 183.0
16:00 23.4 62.0 1017.2 0.0 ENE 1.6 0.0 185.0
16:05 23.6 62.0 1017.2 0.0 ESE 1.6 0.0 262.0
16:10 23.6 61.0 1017.2 0.0 SSE 1.6 0.0 199.0
16:15 23.6 61.0 1017.2 0.0 S 0.0 0.0 167.0
16:20 23.4 61.0 1017.2 0.0 NNE 0.0 0.0 132.0
16:25 23.3 61.0 1017.2 0.0 SW 0.0 0.0 95.0
16:30 23.2 62.0 1017.1 0.0 E 0.0 0.0 53.0
16:35 23.1 63.0 1017.0 0.0 NE 0.0 0.0 44.0
16:40 23.0 62.0 1017.0 0.0 S 1.6 0.0 39.0
16:45 22.9 63.0 1017.0 0.0 SSE 1.6 0.0 35.0
16:50 22.8 63.0 1016.9 0.0 S 1.6 0.0 32.0
16:55 22.7 63.0 1016.8 0.0 SW 0.0 0.0 30.0
17:00 22.7 63.0 1016.9 0.0 WSW 1.6 0.0 30.0
17:05 22.7 63.0 1016.9 0.0 SW 1.6 0.0 28.0
17:10 22.7 63.0 1016.8 1.6 WSW 1.6 0.0 28.0
17:15 22.7 64.0 1016.8 0.0 S 1.6 0.0 26.0
17:20 22.6 64.0 1016.8 0.0 S 1.6 0.0 32.0
17:25 22.4 64.0 1016.9 0.0 ENE 0.0 0.0 54.0
17:30 22.4 65.0 1016.9 0.0 SW 1.6 0.0 51.0
17:35 22.4 65.0 1017.0 0.0 NE 1.6 0.0 44.0
17:40 22.3 65.0 1017.1 0.0 NE 1.6 0.0 26.0
17:45 22.3 64.0 1017.1 0.0 SW 3.2 0.0 21.0
17:50 22.2 64.0 1017.1 0.0 SSW 3.2 0.0 19.0
17:55 22.0 64.0 1017.1 0.0 WSW 1.6 0.0 18.0
Màxima 23.6 86.0 1019.1 1.6 WSW 3.2 0.0 640.0
Mínima 17.2 61.0 1016.8
Total 0.0